User: anonymous   Login
Location: Unspecified
(0.0000°N, 0.0000°E)
Time: 19:34:56
(UTC+00:00)
Language:

UNISAT 6 - Orbit

View from above orbital plane
View from above orbital plane
View from above satellite
View from above satellite

Ground track
Ground track

The orbit data is extracted from the following two-line orbital elements,

1 40012U 14033C   19340.87798807 +.00000122 +00000-0 +25636-4 0  9990
2 40012 097.7320 199.8905 0056927 265.4610 094.0094 14.74041013293905
Epoch (UTC): 06 December 2019 21:04:18
Eccentricity: 0.0056927
inclination: 97.7320°
perigee height: 608 km
apogee height: 688 km
right ascension of ascending node: 199.8905°
argument of perigee: 265.4610°
revolutions per day: 14.74041013
mean anomaly at epoch: 94.0094°
orbit number at epoch: 29390

The dashed part of the orbit path shows where the satellite is in the earth's shadow,  

DLR